Theta_e
316 316 315 314 314 314 315 315 315 315 316 316 315 314 313 313 312 311 310 310 310 310 309 310 309 309 306 296 296 308 317 320 318 319 312 310 303 305 299 301 303 301 302 306 307 306 306
316 315 315 314 313 314 314 314 314 315 316 316 315 313 313 313 312 309 309 309 309 310 309 309 309 308 301 291 306 313 312 315 318 316 312 310 301 307 301 302 299 302 304 304 304 304 305
315 315 314 314 313 312 313 314 313 314 316 315 314 312 313 312 311 309 309 308 308 309 309 310 309 305 298 295 307 307 314 314 318 315 310 311 309 306 302 299 303 302 299 301 302 301 302
315 314 314 313 312 312 313 313 313 314 315 314 314 311 312 310 309 309 308 308 309 309 310 309 309 303 293 306 307 305 311 310 313 317 315 312 312 306 303 302 301 297 297 292 300 301 302
314 314 314 313 313 312 312 312 313 313 314 314 314 311 311 309 308 307 308 308 309 309 309 309 303 298 292 309 301 304 308 305 310 314 315 314 310 304 302 295 292 295 288 291 295 301 300
314 314 313 313 312 312 311 311 312 312 313 313 313 311 311 309 307 308 308 308 307 307 305 306 303 293 297 296 301 306 310 308 306 310 308 305 302 295 296 292 285 288 289 291 292 297 299
313 313 313 312 312 312 311 311 310 311 312 312 311 312 310 310 308 309 305 301 294 292 297 293 293 293 296 301 305 303 307 307 307 306 297 301 293 290 293 293 293 292 291 289 294 298 296
312 312 312 312 312 311 311 311 311 310 310 311 311 311 311 309 309 308 303 294 296 296 289 297 298 295 298 300 297 300 307 302 301 294 299 296 288 295 298 296 295 292 289 289 292 297 296
312 312 312 312 312 311 311 310 310 310 310 309 310 310 311 310 309 304 298 298 303 302 290 294 297 296 299 302 296 296 305 302 298 295 295 292 294 298 298 294 292 291 287 287 289 293 293
311 311 311 311 311 311 311 311 310 310 309 308 309 310 310 311 300 299 297 304 303 301 284 288 293 298 300 302 295 305 306 301 297 293 295 294 297 296 294 293 292 286 292 292 291 288 283
310 310 311 311 311 311 311 310 310 310 309 308 308 310 309 309 300 297 301 303 303 298 271 291 293 304 302 295 297 298 306 301 294 295 296 291 294 294 293 294 295 290 296 292 291 287 286
310 310 310 311 311 310 310 310 310 310 309 308 308 309 308 306 303 301 304 303 300 278 274 287 295 293 294 297 297 300 299 302 300 294 294 293 297 295 295 298 299 298 292 291 288 285 276
309 309 310 310 311 310 310 310 309 309 309 309 308 309 307 307 300 307 304 297 281 273 290 284 290 295 294 294 292 294 293 293 290 285 285 291 290 295 297 294 297 295 287 281 277 274 275
308 309 309 310 310 310 309 309 309 309 308 308 310 309 306 306 306 305 302 289 277 287 287 294 294 293 291 293 292 292 291 289 293 291 287 282 282 291 294 292 290 291 287 279 273 274 277
308 308 309 309 309 309 309 308 308 308 309 307 309 301 301 304 305 304 295 280 283 286 294 292 293 289 289 293 293 289 288 291 294 294 285 285 284 292 294 295 294 290 287 288 282 281 273
307 308 309 309 309 308 308 308 308 307 307 307 297 297 299 306 304 301 287 282 285 294 295 294 288 290 287 290 289 290 290 294 293 297 295 291 282 291 292 295 295 292 293 284 280 274 274
307 307 308 308 307 307 307 307 307 307 307 307 296 293 300 306 302 297 281 283 292 297 295 291 288 289 289 290 291 290 290 292 295 294 295 293 287 287 291 289 289 289 288 287 286 281 275
306 307 307 307 306 306 307 307 306 306 306 300 293 286 301 303 288 292 284 290 295 295 296 293 292 290 288 290 290 288 289 291 296 294 291 292 288 284 286 294 296 293 290 288 280 279 278
305 305 306 306 306 306 307 306 306 305 305 298 289 291 301 299 286 288 291 294 295 294 292 292 291 292 291 288 286 289 290 295 295 294 290 291 284 280 282 286 291 288 291 292 290 286 280
304 305 306 305 306 306 306 306 306 305 306 297 290 289 295 295 293 291 289 290 291 295 294 293 292 292 290 287 289 287 288 294 295 294 299 295 287 280 277 281 286 284 289 291 288 280 282
304 304 305 306 305 305 306 306 306 306 307 296 290 290 292 287 292 289 291 291 290 290 294 293 290 291 289 285 287 287 290 290 293 296 292 290 279 279 285 288 287 286 286 288 284 286 281
303 304 306 305 305 305 305 305 305 305 304 291 286 288 290 286 290 289 290 290 290 292 292 290 289 291 290 287 287 286 289 288 288 290 289 290 278 281 278 286 285 283 286 287 287 288 286
303 303 305 305 305 305 304 305 305 304 300 287 288 290 291 288 288 286 288 293 292 293 294 295 293 291 290 293 293 293 292 292 291 289 288 288 282 277 274 284 283 279 284 285 287 288 288
303 303 305 304 304 304 304 304 304 304 301 289 288 290 285 283 285 285 289 291 291 292 291 294 296 291 295 297 295 293 292 292 292 289 291 287 285 279 273 278 270 283 290 290 288 289 289
304 304 304 304 303 303 304 304 304 304 304 291 290 287 283 278 283 284 286 288 290 292 292 294 297 297 297 294 288 286 286 286 289 289 289 290 288 284 275 276 280 285 288 288 287 287 291
304 304 304 303 303 303 304 304 304 304 304 293 291 291 285 279 280 286 283 286 285 286 290 294 298 299 297 293 291 283 280 282 284 287 290 291 291 283 283 278 274 286 290 294 293 284 293
305 305 305 303 303 302 303 304 304 303 303 297 292 293 287 281 284 287 283 284 288 290 287 294 294 293 295 287 283 282 279 285 281 282 284 285 285 281 283 281 281 289 292 295 283 284 293
305 305 306 303 302 302 303 304 304 303 303 296 292 294 288 282 284 288 289 284 285 284 286 291 292 291 289 285 283 284 281 283 282 284 284 282 281 283 284 281 275 293 293 289 292 295 294
306 306 306 303 302 302 303 304 303 303 302 299 290 297 296 288 285 290 292 292 291 287 284 289 290 293 294 287 286 285 283 284 282 279 285 281 284 282 283 282 290 294 293 296 297 296 296
Wind_Speed
17 17 18 20 20 19 20 20 21 22 24 25 25 25 21 19 15 9 5 5 5 5 4 5 5 3 5 4 11 16 13 28 19 16 15 10 12 6 7 5 8 7 7 11 8 9 10
17 18 18 19 19 20 20 21 21 22 24 24 26 26 23 19 11 3 3 1 3 5 4 5 4 2 1 6 8 13 9 17 17 17 16 9 11 10 5 9 6 8 10 6 2 11 8
16 16 17 18 19 20 20 20 20 22 23 24 25 26 22 16 10 6 3 4 3 3 2 5 4 2 4 12 3 7 7 2 10 17 13 9 6 12 7 5 5 4 8 3 8 6 5
15 16 17 18 19 20 21 20 20 22 23 24 23 25 18 14 11 6 5 4 5 6 5 5 3 1 6 7 7 11 2 2 1 10 10 10 4 3 2 3 6 5 6 7 9 7 3
14 16 17 19 19 21 20 20 21 21 21 22 23 22 15 11 10 8 5 5 8 9 4 1 1 2 7 5 4 3 3 3 5 8 10 5 4 4 3 6 5 5 5 8 10 10 7
14 15 17 18 19 20 21 20 21 21 20 20 21 18 18 10 9 8 9 7 4 3 0 4 4 1 4 6 4 6 4 3 4 11 14 10 4 3 5 6 15 17 11 7 9 9 6
12 14 16 17 18 19 20 21 20 20 21 19 18 17 15 10 7 6 6 4 5 4 1 4 7 7 5 9 7 4 7 4 3 11 10 10 6 14 12 3 5 7 8 3 7 6 8
11 13 15 16 18 18 20 21 21 21 19 18 18 15 14 11 9 7 3 3 3 2 5 5 3 2 8 3 2 4 4 6 3 8 11 6 5 5 8 6 6 4 7 11 1 5 12
11 12 14 16 17 18 18 19 20 20 20 18 18 15 14 10 9 6 4 2 3 5 3 2 1 3 2 1 6 4 5 1 10 8 11 8 7 7 8 5 8 6 6 5 6 3 4
10 12 13 15 17 18 20 20 20 20 20 20 18 17 12 12 4 2 1 2 2 2 3 11 7 5 3 5 4 0 4 5 2 7 9 2 4 8 7 8 5 4 5 5 12 6 4
10 11 13 15 16 18 19 20 21 21 20 19 20 17 9 2 3 2 2 1 3 2 7 8 7 2 5 3 6 9 5 2 6 11 1 2 3 4 3 2 4 5 5 7 5 4 4
9 11 13 14 16 18 20 21 22 23 23 21 21 15 8 2 3 2 1 4 1 5 5 1 4 3 7 7 3 4 3 3 1 6 8 4 3 4 3 4 3 2 9 9 6 4 1
8 11 13 14 16 19 21 22 23 24 25 25 23 10 4 1 3 5 1 2 5 7 4 2 3 0 2 4 4 4 3 5 3 5 3 2 3 2 3 5 5 3 7 2 3 2 7
7 10 13 15 18 19 22 24 26 27 27 26 23 5 6 2 5 5 2 1 10 3 3 3 2 4 3 1 4 4 4 4 4 4 5 4 4 2 1 4 3 7 5 6 7 5 5
7 10 13 14 17 19 21 24 26 27 26 28 19 2 2 3 5 4 2 6 5 3 3 2 1 2 2 3 5 6 1 5 3 3 6 5 2 2 0 2 3 3 3 2 3 2 4
7 10 12 14 17 19 22 24 26 27 26 27 2 1 1 6 6 2 4 4 3 4 3 2 3 0 1 3 2 7 7 5 6 5 3 5 6 1 2 1 2 2 3 2 3 2 4
6 9 12 15 17 19 21 24 25 28 28 22 2 2 2 6 2 0 4 4 4 4 0 0 4 1 3 3 4 3 3 4 6 9 6 7 4 4 5 5 6 4 2 3 2 5 4
4 8 11 14 17 18 19 22 25 27 26 8 3 3 4 4 1 2 2 4 4 0 3 3 1 2 1 1 2 1 4 1 2 6 7 6 5 3 4 4 8 2 4 4 5 4 3
3 7 10 13 16 16 19 21 24 26 20 3 3 2 1 3 1 1 3 2 1 1 0 2 1 1 1 2 2 4 4 3 5 2 5 5 2 4 3 1 6 4 5 4 2 1 5
3 6 9 13 15 16 18 22 24 28 24 3 1 3 2 2 2 2 4 5 4 2 2 2 1 2 1 1 1 3 2 1 3 2 0 2 4 6 8 5 5 5 11 11 6 2 3
0 5 9 12 15 16 19 20 24 27 28 4 3 2 2 3 3 3 2 2 3 4 2 3 2 4 5 3 4 4 3 2 2 1 1 4 4 2 2 3 3 3 5 13 10 8 6
1 4 9 12 13 16 18 20 22 26 22 5 3 3 4 4 6 3 1 3 2 2 4 4 3 6 4 3 2 4 6 5 5 2 3 2 2 3 3 4 2 4 7 8 9 10 7
2 3 8 10 13 15 16 19 19 22 15 4 4 4 2 5 6 1 2 3 4 3 1 2 2 2 2 2 1 3 4 2 6 8 5 5 5 3 3 2 3 8 14 16 7 7 13
3 1 4 7 9 11 15 15 18 19 14 2 2 2 2 4 4 4 6 5 7 5 0 3 4 1 1 3 2 3 5 5 5 4 5 6 6 3 3 3 1 7 3 8 16 9 9
5 3 1 6 7 10 14 15 15 16 16 3 2 3 3 3 4 6 11 4 6 6 3 1 3 1 4 1 3 2 1 1 3 1 1 2 4 2 3 4 8 3 3 5 7 7 13
7 4 1 4 5 9 11 13 12 12 14 3 2 1 2 1 2 5 4 4 3 4 4 3 1 3 4 2 2 4 4 4 3 3 1 2 3 5 0 3 5 3 1 3 3 5 2
7 5 2 2 4 7 10 11 11 9 10 2 1 2 3 2 3 4 3 3 5 3 3 3 4 2 3 2 0 2 3 2 4 5 5 2 1 5 4 3 7 7 4 2 3 5 4
8 6 3 1 2 4 9 10 10 9 9 3 3 1 4 2 7 3 5 3 4 3 2 4 1 3 1 2 3 4 4 5 2 4 7 7 6 4 5 4 8 3 3 4 3 1 3
7 4 4 3 2 4 8 11 9 9 10 2 1 1 2 2 6 3 9 13 9 2 1 4 3 2 3 2 1 2 2 1 5 3 1 3 7 6 8 7 5 5 1 3 5 5 3
Wind_Direction
1 1 358 1 358 351 348 351 356 349 343 347 350 346 341 336 331 316 320 290 309 321 344 347 357 356 119 144 258 282 315 187 187 189 191 188 177 180 168 172 166 222 171 221 221 135 209
359 357 358 0 356 354 355 355 355 347 345 353 354 353 346 346 343 27 25 348 326 354 347 343 5 357 241 236 258 311 256 177 184 179 184 194 183 189 187 174 185 180 232 337 16 168 196
357 358 358 359 354 358 357 355 352 349 353 355 3 357 0 10 53 67 39 3 348 336 318 356 8 235 251 239 222 345 1 20 200 185 183 192 179 190 159 142 209 261 159 277 304 164 176
355 354 358 357 357 358 354 359 351 351 357 357 7 5 12 37 28 43 31 11 343 315 306 281 329 285 257 256 262 279 304 142 52 238 202 198 144 236 124 207 132 165 102 164 225 155 202
354 354 359 356 357 356 1 360 351 353 358 0 4 10 14 30 29 16 16 340 327 324 265 233 184 169 274 332 237 229 156 249 304 163 239 173 143 203 102 124 84 135 167 187 181 193 146
355 355 359 357 357 358 357 1 356 351 360 359 360 10 6 12 29 6 331 312 295 6 136 197 249 257 270 327 318 134 54 360 340 166 208 161 138 118 142 157 182 182 184 183 187 192 170
354 353 357 357 357 358 357 356 358 355 354 355 357 359 2 349 9 358 356 344 27 5 255 175 220 249 245 288 250 91 124 275 222 206 162 175 146 186 176 102 118 126 144 182 209 213 178
354 353 355 358 358 358 358 355 355 354 353 352 350 351 356 350 330 335 7 60 59 215 319 241 349 245 250 278 63 44 9 214 165 143 138 133 170 156 144 175 220 192 172 216 282 202 187
352 351 355 357 356 359 357 355 353 353 352 349 343 340 338 340 314 332 109 96 294 326 232 360 42 309 342 81 77 261 217 174 137 143 144 132 148 154 162 188 209 241 173 199 158 84 17
348 349 354 352 356 359 358 355 351 351 349 346 339 330 327 329 8 244 142 110 343 342 67 355 4 28 32 310 102 209 35 46 122 118 122 78 103 161 181 212 168 243 213 158 137 118 198
344 345 350 350 353 355 354 352 349 347 346 345 336 327 317 253 279 296 213 231 265 73 63 344 326 33 359 24 145 5 8 312 56 107 129 136 101 131 151 186 148 237 125 120 117 106 88
340 339 346 349 351 355 353 348 347 346 344 343 337 323 302 223 163 199 216 311 12 45 63 93 292 221 183 187 96 129 83 28 344 70 52 37 25 45 45 26 44 176 83 52 50 84 22
338 338 342 347 351 355 351 347 347 345 344 341 338 320 254 274 157 163 119 6 30 69 346 280 243 92 25 101 80 65 70 113 121 107 95 80 18 7 37 67 356 278 91 69 8 3 220
336 343 341 346 354 353 351 348 346 346 344 342 336 317 222 225 141 106 88 53 60 327 197 263 227 175 48 88 83 76 100 135 229 96 119 156 163 125 28 138 201 217 134 166 186 200 229
338 347 346 346 352 352 351 350 345 346 342 342 335 114 156 211 131 104 123 49 171 180 306 211 323 264 68 132 122 87 246 154 177 191 137 139 104 144 50 94 212 187 242 200 104 179 73
349 354 352 351 349 353 349 350 348 347 342 340 312 273 157 143 127 109 83 150 189 228 328 256 263 120 118 130 136 180 190 189 143 204 198 150 109 126 156 189 181 194 323 88 10 200 236
358 359 356 358 357 351 350 350 350 349 346 338 80 61 213 136 97 134 120 203 206 212 140 75 337 253 143 157 189 202 88 156 166 192 188 158 116 135 143 205 175 181 193 235 147 158 200
359 0 360 357 358 354 353 351 352 353 350 29 348 61 199 113 114 226 129 186 330 153 218 254 269 6 37 208 130 51 129 103 78 160 164 184 114 140 207 184 213 196 168 210 143 238 220
7 5 358 356 0 359 0 353 353 352 360 339 339 265 173 103 8 63 176 159 281 311 318 327 174 349 357 52 103 100 79 308 35 79 160 174 125 109 118 141 188 195 201 234 39 9 216
24 360 358 359 5 2 2 356 355 350 348 114 22 14 301 192 241 223 181 182 182 218 271 301 122 334 8 38 38 136 114 104 3 105 164 96 145 160 188 204 143 194 181 197 159 205 202
27 1 356 10 9 7 7 360 357 351 346 94 29 19 47 309 333 350 296 104 173 177 250 213 265 227 226 179 173 166 124 118 276 203 14 98 147 111 277 135 122 187 182 182 188 214 162
139 6 6 16 13 11 10 5 3 357 351 75 56 1 346 285 287 294 332 211 91 106 160 228 205 268 238 60 178 170 138 162 192 208 164 52 176 96 306 231 182 248 242 223 214 217 245
149 6 22 23 20 17 13 11 15 11 18 50 329 323 311 285 310 34 12 7 46 72 309 218 278 346 107 161 121 131 153 169 181 153 183 135 128 85 261 22 341 296 226 212 215 202 209
151 4 24 27 22 22 19 13 16 10 28 107 310 314 351 288 26 3 3 6 13 340 80 312 40 31 268 299 328 26 52 57 110 117 149 144 143 110 204 44 260 245 168 196 214 225 207
174 197 18 32 19 20 14 15 13 9 9 80 1 39 15 318 321 355 355 350 329 311 245 88 20 259 319 6 94 106 12 11 193 150 277 167 145 178 142 205 278 270 198 188 172 263 216
187 217 238 36 29 26 16 18 17 13 8 39 8 115 74 47 286 310 310 310 327 333 321 122 57 357 48 60 246 193 193 207 183 181 130 10 139 130 184 256 253 286 219 231 106 278 332
197 231 270 18 28 23 15 9 0 21 5 43 332 24 80 330 284 5 343 309 341 357 301 334 356 37 59 91 296 200 240 215 182 189 170 155 176 192 223 254 282 251 196 110 116 257 314
208 238 244 225 33 20 13 7 23 13 4 55 265 138 106 300 283 302 331 345 335 350 304 351 326 352 67 147 162 247 167 239 212 182 169 165 177 182 193 218 266 183 88 187 209 35 84
211 246 203 197 20 8 10 28 24 354 348 108 313 313 114 179 249 264 275 265 243 195 103 313 319 330 359 249 39 307 271 186 181 240 82 186 182 188 176 210 237 205 238 191 157 152 166